Home > Time Zones > World Clock > Weather > Norway > Moss > Past weeks

Flag for Norway Weather past 2 weeks in Moss, Norway

39 °F

Mostly cloudy.

Feels Like: 35 °F
Forecast: 27 / 36 °F
Wind: 6 mph from South

Location: Rygge

Current Time: Nov 25, 2015 at 6:06:48 AM

Latest Report: Nov 25, 2015 at 4:20 AM

Visibility: N/A

Pressure: 29.36 "Hg

Humidity: 100%

Dew point: 39 °F

Location of MossLocation

Historic Weather in Moss — Graph


Moss temperature yesterday

Maximum temperature yesterday: 45 °F (at 11:50 AM)
Minimum temperature yesterday: 30 °F (at 12:20 AM)
Average temperature yesterday: 41 °F

Past Weeks' High & Low Weather Summary

High50 °F (Nov 10, 1:50 PM)100% (Nov 12, 3:20 AM)29.98 "Hg (Nov 12, 3:20 AM)
Low14 °F (Nov 23, 1:50 AM)62% (Nov 15, 1:50 PM)29.15 "Hg (Nov 19, 4:20 AM)
Average37 °F88%29.55 "Hg
* Reported Nov 10 3:20 AM — Nov 25 3:50 AM, Moss, Weather by CustomWeather, © 2015

Note: Actual official high and low records may vary slightly from our data, if they occured in-between our weather recording intervals... More about our weather records


Moss weather history for previous 24 hours

Time TempWeatherWind HumidityBarometerVisibility
3:50 AM
Wed, Nov 25
39 °FLow clouds.6 mph100%29.36 "Hg5 mi
3:20 AM39 °FLow clouds.5 mph100%29.36 "Hg6 mi
2:50 AM39 °FLow clouds.7 mph100%29.36 "Hg4 mi
2:20 AM41 °FLow clouds.6 mph93%29.36 "HgN/A
1:50 AM41 °FMostly cloudy.7 mph100%29.36 "HgN/A
1:20 AM41 °FLow clouds.8 mph100%29.36 "HgN/A
12:50 AM39 °FMostly cloudy.5 mph100%29.36 "Hg1 mi
12:20 AM39 °FFog.5 mph100%29.39 "Hg1 mi
11:50 PM
Tue, Nov 24
39 °FFog.6 mph100%29.36 "Hg1 mi
11:20 PM41 °FMostly cloudy.5 mph100%29.36 "Hg2 mi
10:50 PM45 °FPassing clouds.5 mph93%29.36 "HgN/A
10:20 PM45 °FPassing clouds.6 mph100%29.39 "HgN/A
9:50 PM45 °FLow clouds.5 mph100%29.39 "HgN/A
9:20 PM45 °FLow clouds.6 mph100%29.39 "HgN/A
8:50 PM45 °FDrizzle. Low clouds.12 mph100%29.39 "Hg3 mi
8:20 PM45 °FDrizzle. Low clouds.12 mph100%29.39 "Hg4 mi
7:50 PM45 °FLight rain. Low clouds.13 mph100%29.39 "Hg4 mi
7:20 PM45 °FDrizzle. Low clouds.13 mph100%29.39 "Hg1 mi
6:50 PM45 °FLight rain. Low clouds.15 mph100%29.42 "Hg4 mi
6:20 PM45 °FRain. Low clouds.14 mph100%29.42 "Hg3 mi
5:50 PM45 °FLight rain. Passing clouds.15 mph100%29.42 "Hg2 mi
5:20 PM45 °FLight rain. Passing clouds.15 mph100%29.45 "Hg3 mi
4:50 PM45 °FLight rain. Fog.16 mph100%29.45 "Hg2 mi
4:20 PM45 °FLight rain. Fog.16 mph100%29.45 "Hg2 mi
3:50 PM45 °FDrizzle. Low clouds.17 mph100%29.45 "Hg2 mi
2:50 PM45 °FLight rain. Partly sunny.12 mph100%29.47 "Hg2 mi
2:20 PM45 °FDrizzle. Partly sunny.15 mph100%29.47 "Hg2 mi
1:50 PM45 °FDrizzle. Fog.10 mph100%29.50 "Hg1 mi
1:20 PM45 °FDrizzle. Partly sunny.9 mph93%29.50 "Hg2 mi
12:50 PM45 °FDrizzle. Partly sunny.12 mph93%29.53 "Hg3 mi
12:20 PM45 °FPartly sunny.9 mph100%29.53 "Hg6 mi
11:50 AM45 °FPartly sunny.9 mph93%29.53 "Hg6 mi
11:20 AM43 °FMostly cloudy.10 mph100%29.56 "HgN/A
10:50 AM43 °FMostly cloudy.12 mph100%29.56 "HgN/A
10:20 AM43 °FPartly sunny.10 mph93%29.56 "HgN/A
9:50 AM43 °FPartly sunny.10 mph93%29.56 "HgN/A
9:20 AM43 °FPartly sunny.12 mph93%29.59 "HgN/A
8:50 AM41 °FDrizzle. Partly sunny.12 mph100%29.59 "HgN/A
7:50 AM41 °FLight rain. Passing clouds.9 mph100%29.59 "Hg6 mi
7:20 AM41 °FLight rain. Passing clouds.8 mph100%29.62 "Hg6 mi
6:50 AM39 °FRain. Partly cloudy.7 mph100%29.62 "Hg6 mi
6:20 AM39 °FLight rain. Low clouds.8 mph100%29.62 "Hg6 mi
Weather by CustomWeather, © 2015

See weather overviewHow to use our weather pages